#timestamp,LO_Frequency,Hit,StdDev 
1625241615.8,286046999.8,N
1625241635.7,286047002.3,N
1625241655.5,286047002.3,N
1625241675.3,286047002.7,N
1625241695.2,286046999.9,N
1625241715.0,286046999.8,N
1625241715.9,286046999.8,N
1625241735.8,286046999.7,N
1625241755.6,286047002.7,N
1625241775.4,286047000.1,N
1625241795.3,286047000.6,N
1625241815.1,286047001.1,N
1625241835.9,286047001.1,N
1625241855.7,286046999.8,N
1625241875.5,286046999.8,N
1625241895.4,286047000.3,N
1625241915.2,286047000.3,N
1625241935.0,286046999.8,N
1625241935.9,286046999.8,N
1625241955.8,286047000.4,N
1625241975.6,286046998.7,N
1625241995.5,286047001.0,N
1625242015.1,286047000.1,N
1625242016.0,286047000.1,N
1625242035.8,286047004.1,Y
1625242055.7,286047004.1,P
1625242075.5,286047001.5,N
1625242095.3,286047002.5,N
1625242115.2,286047000.0,N
1625242135.0,286046999.9,N
1625242135.9,286046999.9,N
1625242155.8,286047002.5,N
1625242175.6,286046999.9,N
1625242195.4,286047002.4,N
1625242215.4,286047000.3,N
1625242235.3,286046999.8,N
1625242255.1,286047002.2,N
1625242275.8,286047001.7,N
1625242295.7,286047001.9,N
1625242315.5,286046999.7,N
1625242335.4,286046999.7,N
1625242355.2,286047001.9,N
1625242375.0,286047001.4,N
1625242375.9,286047001.4,N
1625242395.8,286047004.3,Y
1625242415.6,286047002.4,P
1625242435.4,286047002.1,P
1625242455.3,286047000.1,N
1625242475.1,286047002.8,Y
1625242495.9,286046998.3,P
1625242515.7,286046998.7,N
1625242535.5,286046998.7,N
1625242555.4,286046998.6,N
1625242575.2,286046998.1,N
1625242595.0,286046998.7,N
1625242595.9,286046998.7,N
1625242615.8,286046999.0,N
1625242635.6,286046998.1,N
1625242655.5,286047000.3,N
1625242675.3,286047002.3,N
1625242695.1,286047002.3,N
1625242715.9,286047002.5,N
1625242735.7,286046998.6,N
1625242755.5,286047000.9,N
1625242775.4,286047000.9,N
1625242795.2,286047001.2,N
1625242815.1,286047000.0,N
1625242816.0,286047000.0,N
1625242835.8,286047001.9,N
1625242855.6,286047001.6,N
1625242875.5,286047004.0,N
1625242895.3,286047003.1,N
1625242915.1,286047003.0,N
1625242935.9,286047005.1,N
1625242955.7,286047006.4,Y
1625242975.6,286047008.8,P
1625242995.4,286047010.3,N
1625243015.2,286047010.6,N
1625243035.1,286047010.0,N
1625243036.0,286047010.0,N
1625243055.8,286047010.3,N
1625243075.7,286047010.6,Y
1625243095.5,286047000.0,P
1625243115.3,286047000.7,N
1625243135.2,286047001.2,N
1625243155.0,286046999.9,N
1625243155.9,286046999.9,N
1625243175.8,286047000.5,N
1625243195.6,286046998.2,N
1625243215.4,286046999.7,N
1625243235.3,286047001.0,N
1625243255.1,286047001.0,N
1625243275.9,286047001.1,N
1625243295.7,286047000.4,N
1625243315.5,286046999.7,N
1625243335.4,286047000.2,N
1625243355.2,286047002.8,N
1625243375.0,286047000.4,N
1625243375.9,286047000.4,N
1625243395.8,286046999.0,N
1625243415.6,286046998.3,N
1625243435.4,286046998.7,N
1625243455.3,286046998.8,N
1625243475.1,286046998.3,N
1625243495.9,286046999.0,N
1625243515.7,286046999.9,N
1625243535.5,286047000.8,N
1625243555.4,286046998.2,N
1625243575.2,286046996.7,N
1625243595.0,286046998.3,N
1625243595.9,286046998.3,N
1625243615.8,286047000.7,N
1625243635.6,286046996.5,N
1625243655.5,286046999.1,N
1625243675.3,286046999.5,N
1625243695.1,286046997.7,N
1625243715.9,286046995.4,Y
1625243735.7,286046994.9,P
1625243755.5,286046995.8,N
1625243775.4,286046994.0,P
1625243795.2,286046994.5,N
1625243815.1,286046994.1,Y
1625243816.0,286046994.1,P
1625243835.8,286046997.1,P
1625243855.7,286046998.0,N
1625243875.5,286046997.8,N
1625243895.3,286046994.9,Y
1625243915.2,286047001.0,P
1625243935.0,286046998.4,N
1625243935.9,286046998.4,N
1625243955.8,286046998.7,N
1625243975.6,286046998.2,N
1625243995.4,286046999.0,N
1625244015.3,286046999.0,N
1625244035.1,286046996.6,N
1625244055.8,286046999.0,N
1625244075.7,286046999.5,N
1625244095.5,286046998.4,N
1625244115.3,286046999.3,N
1625244135.2,286046999.4,N
1625244155.0,286046998.9,N
1625244155.9,286046998.9,N
1625244175.8,286046999.0,N
1625244195.6,286046996.8,Y
1625244215.4,286046999.6,P
1625244235.3,286046999.4,N
1625244255.1,286046999.4,N
1625244275.9,286046999.2,N
1625244295.7,286046999.3,N
1625244315.5,286046999.1,Y
1625244335.4,286046998.1,P
1625244355.2,286047001.2,N
1625244375.0,286046999.1,N
1625244375.9,286046999.1,N
1625244395.8,286046999.5,N
1625244415.6,286046999.3,N
1625244435.5,286047001.2,N
1625244455.3,286046998.7,N
1625244475.1,286046998.6,N
1625244495.9,286046998.3,N
1625244515.7,286046998.1,N
1625244535.5,286046998.6,N
1625244555.4,286047000.9,N
1625244575.2,286047000.9,N
1625244595.1,286047002.7,N
1625244596.0,286047002.7,N
1625244615.8,286047002.8,N
1625244635.6,286047002.7,N
1625244655.5,286046999.7,N
1625244675.3,286047000.3,N
1625244695.1,286046998.8,N
1625244715.9,286046999.3,N
1625244735.7,286046998.3,N
1625244755.6,286046998.6,N
1625244775.4,286046998.6,N
1625244795.2,286046998.3,N
1625244815.1,286046998.8,N
1625244816.0,286046998.8,N
1625244835.8,286046998.8,N
1625244855.7,286046998.6,N
1625244875.5,286046998.7,N
1625244895.3,286046998.1,N
1625244915.2,286046998.7,N
1625244935.0,286046998.3,N
1625244935.9,286046998.3,N
1625244955.7,286046998.1,N
1625244975.6,286046998.7,N
1625244995.4,286047000.5,N
1625245015.3,286047001.0,N
1625245035.1,286047000.7,N
1625245055.8,286047000.7,N
1625245075.7,286047000.4,N
1625245095.5,286047001.0,N
1625245115.4,286047000.2,N
1625245135.2,286047000.1,N
1625245155.0,286047000.3,N
1625245155.9,286047000.3,N
1625245175.8,286047000.3,N
1625245195.6,286047000.9,N
